Tracking 19638 objects as of 20-May-2019
HD Live streaming from Space Station
objects crossing your sky now

IRIDIUM 147

Track IRIDIUM 147 now!
10-day predictions
IRIDIUM 147 is classified as:


NORAD ID: 43480
Int'l Code: 2018-047E
Perigee: 783.4 km
Apogee: 786.2 km
Inclination: 86.4 °
Period: 100.4 minutes
Semi major axis: 7155 km
RCS: Unknown
Launch date: May 22, 2018
Source: United States (US)
Launch site: AIR FORCE WESTERN TEST RANGE (AFWTR)
aabbcc
Your satellite tracking list
Your tracking list is empty




NASA's NSSDC Master Catalog

Two Line Element Set (TLE):
1 43480U 18047E   19140.39387663  .00000067  00000-0  17037-4 0  9994
2 43480  86.3965  88.5488 0001997  87.1689 272.9736 14.34217244 52009
Source of the keplerian elements: AFSPC